OPS 4682 DEB, 12102

Orbit data source: Space-Track

OPS 4682 DEB, 12102 is space debris in LEO originally from a launch on Sat, 03 Apr 1965 UTC launched from the Air Force Western Test Range (AFWTR). Debris objects in space refer to the collection of defunct objects orbiting the Earth. Examples of debris include non-operational satellites, rocket bodies, and fragments generated from explosions, collisions, or faulty payload assembly.

Loading next visibility...
Identifier
12102, 1965-027G
Orbit
LEO
Country
Flag of USUS
Related business
Manufacturer
Unknown
Mission
Spacecraft
Bus & Motor
Unknown
Mass
Unknown
Launch date (UTC)
1965-04-03 (61 years ago)
Launch vehicle
Unknown
Launch site
Air Force Western Test Range (AFWTR)
Object type
Payload
Rocket body
Debris
Shape & HBR
Unknown shape, 0.1 m
Radar Cross Section
Small (<0.1 m²)

Expand to show TLE details & history
Last TLE update: 23 hours ago

TLE from 23 hours ago
0 OPS 4682 DEB
1 12102U 65027G   26263.60773480  .00000586  00000-0  19524-2 0  9992
2 12102  90.2580  16.7561 0027115  92.9104 280.0705 12.98796160903125
Epoch: 2026-09-20T14:35Z
TLE epoch observation values (Epoch: 2026-09-20T14:35:08.286Z)
Latitude
12.63579°
Longitude
158.41454°
Altitude
1,265.37 km
Speed
7.225 km/s
True Right ascension
01h 06m 47s
True Declination
12° 34' 03"
Sunlit
Object was in full shadow at epoch
Visualization orbit readout
Latitude
Unknown
Longitude
Unknown
Altitude
Unknown
Speed
Unknown
Apparent Right ascension
Unknown
Apparent Declination
Unknown
Sunlit
N/A
Visualization observer readout
Local Sidereal Time
06:57:02
Azimuth
Unknown
Elevation
Unknown
Doppler factor
Unknown
Orbital elements
Apogee altitude
1,284.657 km
Perigee altitude
1,243.214 km
Semi-major axis
7,642.073 km
Eccentricity
0.00271
Inclination
90.258°
RAAN
16.7561°
Arg. of periapsis
92.9104°
True anomaly
279.76439°
Mean anomaly
280.0705°
Eccentric anomaly
279.91746°
Mean motion
3.24883 °/min
Orbital period
110.81 mins
BSTAR
0.0019524
Loading maneuver chart data...
Computing Atmospheric mass density...
Loading historical data...
Loading historical data...
Loading historical data...
Loading historical data...
Loading historical data...
Loading historical data...
Loading historical data...

Documentation

Showing up to 5 results
|